Year,Month,Day,Hour,Minute,Value (Times are PST for temperature in C)
2017,10,26,00,00,5.10
2017,10,26,00,01,5.10
2017,10,26,00,02,5.00
2017,10,26,00,03,5.00
2017,10,26,00,04,5.00
2017,10,26,00,05,5.00
2017,10,26,00,06,5.00
2017,10,26,00,07,5.00
2017,10,26,00,08,5.00
2017,10,26,00,09,4.90
2017,10,26,00,10,4.90
2017,10,26,00,11,4.90
2017,10,26,00,12,4.80
2017,10,26,00,13,4.80
2017,10,26,00,14,4.80
2017,10,26,00,15,4.70
2017,10,26,00,16,4.70
2017,10,26,00,17,4.60
2017,10,26,00,18,4.60
2017,10,26,00,19,4.60
2017,10,26,00,20,4.60
2017,10,26,00,21,4.60
2017,10,26,00,22,4.60
2017,10,26,00,23,4.70
2017,10,26,00,24,4.70
2017,10,26,00,25,4.70
2017,10,26,00,26,4.70
2017,10,26,00,27,4.70
2017,10,26,00,28,4.80
2017,10,26,00,29,4.80
2017,10,26,00,30,4.80
2017,10,26,00,31,4.80
2017,10,26,00,32,4.70
2017,10,26,00,33,4.70
2017,10,26,00,34,4.60
2017,10,26,00,35,4.60
2017,10,26,00,36,4.60
2017,10,26,00,37,4.50
2017,10,26,00,38,4.50
2017,10,26,00,39,4.50
2017,10,26,00,40,4.50
2017,10,26,00,41,4.50
2017,10,26,00,42,4.50
2017,10,26,00,43,4.50
2017,10,26,00,44,4.50
2017,10,26,00,45,4.50
2017,10,26,00,46,4.50
2017,10,26,00,47,4.50
2017,10,26,00,48,4.50
2017,10,26,00,49,4.50
2017,10,26,00,50,4.50
2017,10,26,00,51,4.50
2017,10,26,00,52,4.50
2017,10,26,00,53,4.60
2017,10,26,00,54,4.60
2017,10,26,00,55,4.60
2017,10,26,00,56,4.60
2017,10,26,00,57,4.70
2017,10,26,00,58,4.70
2017,10,26,00,59,4.80
2017,10,26,01,00,4.80
2017,10,26,01,01,4.80
2017,10,26,01,02,4.90
2017,10,26,01,03,4.90
2017,10,26,01,04,5.00
2017,10,26,01,05,5.00
2017,10,26,01,06,5.10
2017,10,26,01,07,5.10
2017,10,26,01,08,5.20
2017,10,26,01,09,5.20
2017,10,26,01,10,5.20
2017,10,26,01,11,5.40
2017,10,26,01,12,5.40
2017,10,26,01,13,5.50
2017,10,26,01,14,5.60
2017,10,26,01,15,5.70
2017,10,26,01,16,5.70
2017,10,26,01,17,5.80
2017,10,26,01,18,5.80
2017,10,26,01,19,5.90
2017,10,26,01,20,5.90
2017,10,26,01,21,5.90
2017,10,26,01,22,5.90
2017,10,26,01,23,5.90
2017,10,26,01,24,5.90
2017,10,26,01,25,5.90
2017,10,26,01,26,5.90
2017,10,26,01,27,5.90
2017,10,26,01,28,5.90
2017,10,26,01,29,5.80
2017,10,26,01,30,5.80
2017,10,26,01,31,5.80
2017,10,26,01,32,5.80
2017,10,26,01,33,5.80
2017,10,26,01,34,5.80
2017,10,26,01,35,5.80
2017,10,26,01,36,5.90
2017,10,26,01,37,5.90
2017,10,26,01,38,5.90
2017,10,26,01,39,5.90
2017,10,26,01,40,5.90
2017,10,26,01,41,5.90
2017,10,26,01,42,6.00
2017,10,26,01,43,6.00
2017,10,26,01,44,6.00
2017,10,26,01,45,6.00
2017,10,26,01,46,6.00
2017,10,26,01,47,6.00
2017,10,26,01,48,6.00
2017,10,26,01,49,6.00
2017,10,26,01,50,6.10
2017,10,26,01,51,6.10
2017,10,26,01,52,6.10
2017,10,26,01,53,6.10
2017,10,26,01,54,6.10
2017,10,26,01,55,6.10
2017,10,26,01,56,6.10
2017,10,26,01,57,6.10
2017,10,26,01,58,6.10
2017,10,26,01,59,6.20
2017,10,26,02,00,6.20
2017,10,26,02,01,6.20
2017,10,26,02,02,6.20
2017,10,26,02,03,6.20
2017,10,26,02,04,6.20
2017,10,26,02,05,6.20
2017,10,26,02,06,6.20
2017,10,26,02,07,6.20
2017,10,26,02,08,6.20
2017,10,26,02,09,6.20
2017,10,26,02,10,6.20
2017,10,26,02,11,6.20
2017,10,26,02,12,6.20
2017,10,26,02,13,6.20
2017,10,26,02,14,6.20
2017,10,26,02,15,6.20
2017,10,26,02,16,6.20
2017,10,26,02,17,6.20
2017,10,26,02,18,6.30
2017,10,26,02,19,6.30
2017,10,26,02,20,6.30
2017,10,26,02,21,6.30
2017,10,26,02,22,6.30
2017,10,26,02,23,6.30
2017,10,26,02,24,6.30
2017,10,26,02,25,6.30
2017,10,26,02,26,6.30
2017,10,26,02,27,6.40
2017,10,26,02,28,6.40
2017,10,26,02,29,6.40
2017,10,26,02,30,6.40
2017,10,26,02,31,6.40
2017,10,26,02,32,6.40
2017,10,26,02,33,6.40
2017,10,26,02,34,6.40
2017,10,26,02,35,6.50
2017,10,26,02,36,6.50
2017,10,26,02,37,6.50
2017,10,26,02,38,6.60
2017,10,26,02,39,6.60
2017,10,26,02,40,6.60
2017,10,26,02,41,6.60
2017,10,26,02,42,6.70
2017,10,26,02,43,6.70
2017,10,26,02,44,6.70
2017,10,26,02,45,6.70
2017,10,26,02,46,6.70
2017,10,26,02,47,6.80
2017,10,26,02,48,6.80
2017,10,26,02,49,6.80
2017,10,26,02,50,6.80
2017,10,26,02,51,6.90
2017,10,26,02,52,6.90
2017,10,26,02,53,6.90
2017,10,26,02,54,6.90
2017,10,26,02,55,7.00
2017,10,26,02,56,7.00
2017,10,26,02,57,7.00
2017,10,26,02,58,7.10
2017,10,26,02,59,7.10
2017,10,26,03,00,7.10
2017,10,26,03,01,7.10
2017,10,26,03,02,7.20
2017,10,26,03,03,7.20
2017,10,26,03,04,7.20
2017,10,26,03,05,7.20
2017,10,26,03,06,7.30
2017,10,26,03,07,7.30
2017,10,26,03,08,7.30
2017,10,26,03,09,7.30
2017,10,26,03,10,7.30
2017,10,26,03,11,7.30
2017,10,26,03,12,7.30
2017,10,26,03,13,7.30
2017,10,26,03,14,7.30
2017,10,26,03,15,7.30
2017,10,26,03,16,7.30
2017,10,26,03,17,7.30
2017,10,26,03,18,7.30
2017,10,26,03,19,7.20
2017,10,26,03,20,7.20
2017,10,26,03,21,7.20
2017,10,26,03,22,7.20
2017,10,26,03,23,7.20
2017,10,26,03,24,7.20
2017,10,26,03,25,7.20
2017,10,26,03,26,7.20
2017,10,26,03,27,7.20
2017,10,26,03,28,7.20
2017,10,26,03,29,7.20
2017,10,26,03,30,7.20
2017,10,26,03,31,7.20
2017,10,26,03,32,7.20
2017,10,26,03,33,7.20
2017,10,26,03,34,7.20
2017,10,26,03,35,7.20
2017,10,26,03,36,7.20
2017,10,26,03,37,7.30
2017,10,26,03,38,7.20
2017,10,26,03,39,7.30
2017,10,26,03,40,7.30
2017,10,26,03,41,7.30
2017,10,26,03,42,7.30
2017,10,26,03,43,7.30
2017,10,26,03,44,7.30
2017,10,26,03,45,7.30
2017,10,26,03,46,7.30
2017,10,26,03,47,7.30
2017,10,26,03,48,7.30
2017,10,26,03,49,7.40
2017,10,26,03,50,7.40
2017,10,26,03,51,7.40
2017,10,26,03,52,7.40
2017,10,26,03,53,7.40
2017,10,26,03,54,7.40
2017,10,26,03,55,7.50
2017,10,26,03,56,7.50
2017,10,26,03,57,7.60
2017,10,26,03,58,7.60
2017,10,26,03,59,7.60
2017,10,26,04,00,7.60
2017,10,26,04,01,7.60
2017,10,26,04,02,7.60
2017,10,26,04,03,7.60
2017,10,26,04,04,7.50
2017,10,26,04,05,7.50
2017,10,26,04,06,7.50
2017,10,26,04,07,7.50
2017,10,26,04,08,7.40
2017,10,26,04,09,7.40
2017,10,26,04,10,7.40
2017,10,26,04,11,7.40
2017,10,26,04,12,7.40
2017,10,26,04,13,7.40
2017,10,26,04,14,7.40
2017,10,26,04,15,7.40
2017,10,26,04,16,7.40
2017,10,26,04,17,7.40
2017,10,26,04,18,7.30
2017,10,26,04,19,7.30
2017,10,26,04,20,7.30
2017,10,26,04,21,7.30
2017,10,26,04,22,7.30
2017,10,26,04,23,7.30
2017,10,26,04,24,7.30
2017,10,26,04,25,7.30
2017,10,26,04,26,7.30
2017,10,26,04,27,7.40
2017,10,26,04,28,7.40
2017,10,26,04,29,7.40
2017,10,26,04,30,7.40
2017,10,26,04,31,7.40
2017,10,26,04,32,7.40
2017,10,26,04,33,7.40
2017,10,26,04,34,7.40
2017,10,26,04,35,7.30
2017,10,26,04,36,7.30
2017,10,26,04,37,7.20
2017,10,26,04,38,7.10
2017,10,26,04,39,7.10
2017,10,26,04,40,7.00
2017,10,26,04,41,7.00
2017,10,26,04,42,6.90
2017,10,26,04,43,6.90
2017,10,26,04,44,6.80
2017,10,26,04,45,6.80
2017,10,26,04,46,6.80
2017,10,26,04,47,6.80
2017,10,26,04,48,6.70
2017,10,26,04,49,6.70
2017,10,26,04,50,6.70
2017,10,26,04,51,6.70
2017,10,26,04,52,6.70
2017,10,26,04,53,6.70
2017,10,26,04,54,6.70
2017,10,26,04,55,6.70
2017,10,26,04,56,6.70
2017,10,26,04,57,6.70
2017,10,26,04,58,6.70
2017,10,26,04,59,6.70
2017,10,26,05,00,6.80
2017,10,26,05,01,6.80
2017,10,26,05,02,6.80
2017,10,26,05,03,6.80
2017,10,26,05,04,6.90
2017,10,26,05,05,6.90
2017,10,26,05,06,6.90
2017,10,26,05,07,6.90
2017,10,26,05,08,6.90
2017,10,26,05,09,6.80
2017,10,26,05,10,6.70
2017,10,26,05,11,6.60
2017,10,26,05,12,6.60
2017,10,26,05,13,6.50
2017,10,26,05,14,6.50
2017,10,26,05,15,6.40
2017,10,26,05,16,6.30
2017,10,26,05,17,6.30
2017,10,26,05,18,6.20
2017,10,26,05,19,6.20
2017,10,26,05,20,6.10
2017,10,26,05,21,6.10
2017,10,26,05,22,6.00
2017,10,26,05,23,6.00
2017,10,26,05,24,5.90
2017,10,26,05,25,5.90
2017,10,26,05,26,5.90
2017,10,26,05,27,5.90
2017,10,26,05,28,5.90
2017,10,26,05,29,5.80
2017,10,26,05,30,5.80
2017,10,26,05,31,5.80
2017,10,26,05,32,5.80
2017,10,26,05,33,5.80
2017,10,26,05,34,5.90
2017,10,26,05,35,5.90
2017,10,26,05,36,5.90
2017,10,26,05,37,5.90
2017,10,26,05,38,5.80
2017,10,26,05,39,5.80
2017,10,26,05,40,5.80
2017,10,26,05,41,5.70
2017,10,26,05,42,5.70
2017,10,26,05,43,5.70
2017,10,26,05,44,5.60
2017,10,26,05,45,5.60
2017,10,26,05,46,5.50
2017,10,26,05,47,5.50
2017,10,26,05,48,5.40
2017,10,26,05,49,5.40
2017,10,26,05,50,5.40
2017,10,26,05,51,5.40
2017,10,26,05,52,5.40
2017,10,26,05,53,5.30
2017,10,26,05,54,5.30
2017,10,26,05,55,5.30
2017,10,26,05,56,5.30
2017,10,26,05,57,5.30
2017,10,26,05,58,5.40
2017,10,26,05,59,5.40
2017,10,26,06,00,5.40
2017,10,26,06,01,5.40
2017,10,26,06,02,5.40
2017,10,26,06,03,5.30
2017,10,26,06,04,5.30
2017,10,26,06,05,5.30
2017,10,26,06,06,5.40
2017,10,26,06,07,5.40
2017,10,26,06,08,5.40
2017,10,26,06,09,5.40
2017,10,26,06,10,5.40
2017,10,26,06,11,5.40
2017,10,26,06,12,5.40
2017,10,26,06,13,5.50
2017,10,26,06,14,5.50
2017,10,26,06,15,5.50
2017,10,26,06,16,5.50
2017,10,26,06,17,5.50
2017,10,26,06,18,5.40
2017,10,26,06,19,5.40
2017,10,26,06,20,5.40
2017,10,26,06,21,5.30
2017,10,26,06,22,5.30
2017,10,26,06,23,5.30
2017,10,26,06,24,5.30
2017,10,26,06,25,5.30
2017,10,26,06,26,5.30
2017,10,26,06,27,5.30
2017,10,26,06,28,5.30
2017,10,26,06,29,5.30
2017,10,26,06,30,5.30
2017,10,26,06,31,5.30
2017,10,26,06,32,5.30
2017,10,26,06,33,5.30
2017,10,26,06,34,5.40
2017,10,26,06,35,5.40
2017,10,26,06,36,5.40
2017,10,26,06,37,5.50
2017,10,26,06,38,5.50
2017,10,26,06,39,5.50
2017,10,26,06,40,5.50
2017,10,26,06,41,5.50
2017,10,26,06,42,5.50
2017,10,26,06,43,5.40
2017,10,26,06,44,5.40
2017,10,26,06,45,5.40
2017,10,26,06,46,5.40
2017,10,26,06,47,5.40
2017,10,26,06,48,5.40
2017,10,26,06,49,5.30
2017,10,26,06,50,5.30
2017,10,26,06,51,5.30
2017,10,26,06,52,5.20
2017,10,26,06,53,5.20
2017,10,26,06,54,5.20
2017,10,26,06,55,5.20
2017,10,26,06,56,5.20
2017,10,26,06,57,5.10
2017,10,26,06,58,5.10
2017,10,26,06,59,5.10
2017,10,26,07,00,5.10
2017,10,26,07,01,5.10
2017,10,26,07,02,5.10
2017,10,26,07,03,5.10
2017,10,26,07,04,5.10
2017,10,26,07,05,5.10
2017,10,26,07,06,5.10
2017,10,26,07,07,5.00
2017,10,26,07,08,5.00
2017,10,26,07,09,4.90
2017,10,26,07,10,4.90
2017,10,26,07,11,4.80
2017,10,26,07,12,4.80
2017,10,26,07,13,4.70
2017,10,26,07,14,4.70
2017,10,26,07,15,4.70
2017,10,26,07,16,4.60
2017,10,26,07,17,4.60
2017,10,26,07,18,4.60
2017,10,26,07,19,4.50
2017,10,26,07,20,4.50
2017,10,26,07,21,4.50
2017,10,26,07,22,4.60
2017,10,26,07,23,4.60
2017,10,26,07,24,4.60
2017,10,26,07,25,4.60
2017,10,26,07,26,4.60
2017,10,26,07,27,4.70
2017,10,26,07,28,4.80
2017,10,26,07,29,4.80
2017,10,26,07,30,4.80
2017,10,26,07,31,4.90
2017,10,26,07,32,4.90
2017,10,26,07,33,4.90
2017,10,26,07,34,4.90
2017,10,26,07,35,4.80
2017,10,26,07,36,4.80
2017,10,26,07,37,4.70
2017,10,26,07,38,4.60
2017,10,26,07,39,4.50
2017,10,26,07,40,4.50
2017,10,26,07,41,4.40
2017,10,26,07,42,4.40
2017,10,26,07,43,4.40
2017,10,26,07,44,4.30
2017,10,26,07,45,4.30
2017,10,26,07,46,4.30
2017,10,26,07,47,4.30
2017,10,26,07,48,4.30
2017,10,26,07,49,4.30
2017,10,26,07,50,4.20
2017,10,26,07,51,4.20
2017,10,26,07,52,4.20
2017,10,26,07,53,4.20
2017,10,26,07,54,4.20
2017,10,26,07,55,4.20
2017,10,26,07,56,4.20
2017,10,26,07,57,4.30
2017,10,26,07,58,4.30
2017,10,26,07,59,4.30
2017,10,26,08,00,4.30
2017,10,26,08,01,4.30
2017,10,26,08,02,4.40
2017,10,26,08,03,4.50
2017,10,26,08,04,4.50
2017,10,26,08,05,4.60
2017,10,26,08,06,4.60
2017,10,26,08,07,4.70
2017,10,26,08,08,4.70
2017,10,26,08,09,4.70
2017,10,26,08,10,4.70
2017,10,26,08,11,4.80
2017,10,26,08,12,4.80
2017,10,26,08,13,4.90
2017,10,26,08,14,5.00
2017,10,26,08,15,5.10
2017,10,26,08,16,5.20
2017,10,26,08,17,5.30
2017,10,26,08,18,5.40
2017,10,26,08,19,5.50
2017,10,26,08,20,5.60
2017,10,26,08,21,5.70
2017,10,26,08,22,5.80
2017,10,26,08,23,5.80
2017,10,26,08,24,5.80
2017,10,26,08,25,5.90
2017,10,26,08,26,5.90
2017,10,26,08,27,5.80
2017,10,26,08,28,5.80
2017,10,26,08,29,5.80
2017,10,26,08,30,5.80
2017,10,26,08,31,5.80
2017,10,26,08,32,5.90
2017,10,26,08,33,5.90
2017,10,26,08,34,6.00
2017,10,26,08,35,6.10
2017,10,26,08,36,6.20
2017,10,26,08,37,6.20
2017,10,26,08,38,6.30
2017,10,26,08,39,6.50
2017,10,26,08,40,6.60
2017,10,26,08,41,6.70
2017,10,26,08,42,6.80
2017,10,26,08,43,6.90
2017,10,26,08,44,7.00
2017,10,26,08,45,7.10
2017,10,26,08,46,7.20
2017,10,26,08,47,7.30
2017,10,26,08,48,7.40
2017,10,26,08,49,7.50
2017,10,26,08,50,7.60
2017,10,26,08,51,7.60
2017,10,26,08,52,7.70
2017,10,26,08,53,7.70
2017,10,26,08,54,7.80
2017,10,26,08,55,7.80
2017,10,26,08,56,7.80
2017,10,26,08,57,7.80
2017,10,26,08,58,7.90
2017,10,26,08,59,7.90
2017,10,26,09,00,8.00
2017,10,26,09,01,8.00
2017,10,26,09,02,8.00
2017,10,26,09,03,8.10
2017,10,26,09,04,8.10
2017,10,26,09,05,8.20
2017,10,26,09,06,8.20
2017,10,26,09,07,8.20
2017,10,26,09,08,8.20
2017,10,26,09,09,8.20
2017,10,26,09,10,8.20
2017,10,26,09,11,8.20
2017,10,26,09,12,8.20
2017,10,26,09,13,8.20
2017,10,26,09,14,8.20
2017,10,26,09,15,8.20
2017,10,26,09,16,8.20
2017,10,26,09,17,8.30
2017,10,26,09,18,8.30
2017,10,26,09,19,8.30
2017,10,26,09,20,8.30
2017,10,26,09,21,8.30
2017,10,26,09,22,8.30
2017,10,26,09,23,8.30
2017,10,26,09,24,8.40
2017,10,26,09,25,8.40
2017,10,26,09,26,8.40
2017,10,26,09,27,8.40
2017,10,26,09,28,8.50
2017,10,26,09,29,8.50
2017,10,26,09,30,8.60
2017,10,26,09,31,8.60
2017,10,26,09,32,8.70
2017,10,26,09,33,8.70
2017,10,26,09,34,8.80
2017,10,26,09,35,8.90
2017,10,26,09,36,9.00
2017,10,26,09,37,9.10
2017,10,26,09,38,9.20
2017,10,26,09,39,9.30
2017,10,26,09,40,9.40
2017,10,26,09,41,9.50
2017,10,26,09,42,9.60
2017,10,26,09,43,9.70
2017,10,26,09,44,9.70
2017,10,26,09,45,9.80
2017,10,26,09,46,9.80
2017,10,26,09,47,10.00
2017,10,26,09,48,10.00
2017,10,26,09,49,10.10
2017,10,26,09,50,10.20
2017,10,26,09,51,10.30
2017,10,26,09,52,10.30
2017,10,26,09,53,10.40
2017,10,26,09,54,10.40
2017,10,26,09,55,10.50
2017,10,26,09,56,10.60
2017,10,26,09,57,10.60
2017,10,26,09,58,10.70
2017,10,26,09,59,10.70
2017,10,26,10,00,10.80
2017,10,26,10,01,10.80
2017,10,26,10,02,10.80
2017,10,26,10,03,10.90
2017,10,26,10,04,10.90
2017,10,26,10,05,10.90
2017,10,26,10,06,11.00
2017,10,26,10,07,11.00
2017,10,26,10,08,11.10
2017,10,26,10,09,11.10
2017,10,26,10,10,11.10
2017,10,26,10,11,11.20
2017,10,26,10,12,11.20
2017,10,26,10,13,11.20
2017,10,26,10,14,11.30
2017,10,26,10,15,11.30
2017,10,26,10,16,11.30
2017,10,26,10,17,11.30
2017,10,26,10,18,11.40
2017,10,26,10,19,11.40
2017,10,26,10,20,11.40
2017,10,26,10,21,11.40
2017,10,26,10,22,11.50
2017,10,26,10,23,11.50
2017,10,26,10,24,11.50
2017,10,26,10,25,11.50
2017,10,26,10,26,11.60
2017,10,26,10,27,11.60
2017,10,26,10,28,11.60
2017,10,26,10,29,11.70
2017,10,26,10,30,11.70
2017,10,26,10,31,11.70
2017,10,26,10,32,11.80
2017,10,26,10,33,11.80
2017,10,26,10,34,11.80
2017,10,26,10,35,11.80
2017,10,26,10,36,11.90
2017,10,26,10,37,11.90
2017,10,26,10,38,11.90
2017,10,26,10,39,11.90
2017,10,26,10,40,12.00
2017,10,26,10,41,12.00
2017,10,26,10,42,12.00
2017,10,26,10,43,12.10
2017,10,26,10,44,12.10
2017,10,26,10,45,12.10
2017,10,26,10,46,12.10
2017,10,26,10,47,12.20
2017,10,26,10,48,12.20
2017,10,26,10,49,12.20
2017,10,26,10,50,12.20
2017,10,26,10,51,12.20
2017,10,26,10,52,12.20
2017,10,26,10,53,12.20
2017,10,26,10,54,12.20
2017,10,26,10,55,12.20
2017,10,26,10,56,12.20
2017,10,26,10,57,12.30
2017,10,26,10,58,12.30
2017,10,26,10,59,12.30
2017,10,26,11,00,12.40
2017,10,26,11,01,12.40
2017,10,26,11,02,12.40
2017,10,26,11,03,12.40
2017,10,26,11,04,12.50
2017,10,26,11,05,12.50
2017,10,26,11,06,12.50
2017,10,26,11,07,12.60
2017,10,26,11,08,12.60
2017,10,26,11,09,12.60
2017,10,26,11,10,12.60
2017,10,26,11,11,12.60
2017,10,26,11,12,12.70
2017,10,26,11,13,12.70
2017,10,26,11,14,12.70
2017,10,26,11,15,12.70
2017,10,26,11,16,12.70
2017,10,26,11,17,12.70
2017,10,26,11,18,12.70
2017,10,26,11,19,12.70
2017,10,26,11,20,12.70
2017,10,26,11,21,12.80
2017,10,26,11,22,12.80
2017,10,26,11,23,12.80
2017,10,26,11,24,12.80
2017,10,26,11,25,12.80
2017,10,26,11,26,12.80
2017,10,26,11,27,12.80
2017,10,26,11,28,12.80
2017,10,26,11,29,12.80
2017,10,26,11,30,12.80
2017,10,26,11,31,12.80
2017,10,26,11,32,12.80
2017,10,26,11,33,12.80
2017,10,26,11,34,12.80
2017,10,26,11,35,12.80
2017,10,26,11,36,12.80
2017,10,26,11,37,12.80
2017,10,26,11,38,12.90
2017,10,26,11,39,12.90
2017,10,26,11,40,12.90
2017,10,26,11,41,12.90
2017,10,26,11,42,12.90
2017,10,26,11,43,12.90
2017,10,26,11,44,13.00
2017,10,26,11,45,13.00
2017,10,26,11,46,13.10
2017,10,26,11,47,13.00
2017,10,26,11,48,13.00
2017,10,26,11,49,13.10
2017,10,26,11,50,13.10
2017,10,26,11,51,13.10
2017,10,26,11,52,13.00
2017,10,26,11,53,13.00
2017,10,26,11,54,13.00
2017,10,26,11,55,13.00
2017,10,26,11,56,12.90
2017,10,26,11,57,13.00
2017,10,26,11,58,13.00
2017,10,26,11,59,13.10
2017,10,26,12,00,13.10
2017,10,26,12,01,13.10
2017,10,26,12,02,13.10
2017,10,26,12,03,13.10
2017,10,26,12,04,13.10
2017,10,26,12,05,13.10
2017,10,26,12,06,13.10
2017,10,26,12,07,13.10
2017,10,26,12,08,13.10
2017,10,26,12,09,13.10
2017,10,26,12,10,13.10
2017,10,26,12,11,13.10
2017,10,26,12,12,13.10
2017,10,26,12,13,13.10
2017,10,26,12,14,13.20
2017,10,26,12,15,13.20
2017,10,26,12,16,13.20
2017,10,26,12,17,13.20
2017,10,26,12,18,13.20
2017,10,26,12,19,13.10
2017,10,26,12,20,13.10
2017,10,26,12,21,13.00
2017,10,26,12,22,13.00
2017,10,26,12,23,13.00
2017,10,26,12,24,13.10
2017,10,26,12,25,13.10
2017,10,26,12,26,13.20
2017,10,26,12,27,13.20
2017,10,26,12,28,13.20
2017,10,26,12,29,13.20
2017,10,26,12,30,13.20
2017,10,26,12,31,13.20
2017,10,26,12,32,13.20
2017,10,26,12,33,13.20
2017,10,26,12,34,13.20
2017,10,26,12,35,13.20
2017,10,26,12,36,13.20
2017,10,26,12,37,13.20
2017,10,26,12,38,13.20
2017,10,26,12,39,13.20
2017,10,26,12,40,13.20
2017,10,26,12,41,13.20
2017,10,26,12,42,13.20
2017,10,26,12,43,13.20
2017,10,26,12,44,13.20
2017,10,26,12,45,13.20
2017,10,26,12,46,13.20
2017,10,26,12,47,13.20
2017,10,26,12,48,13.30
2017,10,26,12,49,13.30
2017,10,26,12,50,13.30
2017,10,26,12,51,13.40
2017,10,26,12,52,13.40
2017,10,26,12,53,13.50
2017,10,26,12,54,13.50
2017,10,26,12,55,13.50
2017,10,26,12,56,13.50
2017,10,26,12,57,13.50
2017,10,26,12,58,13.50
2017,10,26,12,59,13.60
2017,10,26,13,00,13.60
2017,10,26,13,01,13.70
2017,10,26,13,02,13.70
2017,10,26,13,03,13.70
2017,10,26,13,04,13.80
2017,10,26,13,05,13.80
2017,10,26,13,06,13.80
2017,10,26,13,07,13.70
2017,10,26,13,08,13.70
2017,10,26,13,09,13.70
2017,10,26,13,10,13.70
2017,10,26,13,11,13.70
2017,10,26,13,12,13.70
2017,10,26,13,13,13.80
2017,10,26,13,14,13.80
2017,10,26,13,15,13.80
2017,10,26,13,16,13.80
2017,10,26,13,17,13.80
2017,10,26,13,18,13.80
2017,10,26,13,19,13.80
2017,10,26,13,20,13.70
2017,10,26,13,21,13.70
2017,10,26,13,22,13.70
2017,10,26,13,23,13.70
2017,10,26,13,24,13.70
2017,10,26,13,25,13.70
2017,10,26,13,26,13.70
2017,10,26,13,27,13.70
2017,10,26,13,28,13.70
2017,10,26,13,29,13.80
2017,10,26,13,30,13.80
2017,10,26,13,31,13.80
2017,10,26,13,32,13.80
2017,10,26,13,33,13.80
2017,10,26,13,34,13.80
2017,10,26,13,35,13.80
2017,10,26,13,36,13.80
2017,10,26,13,37,13.90
2017,10,26,13,38,13.90
2017,10,26,13,39,14.00
2017,10,26,13,40,14.00
2017,10,26,13,41,14.10
2017,10,26,13,42,14.10
2017,10,26,13,43,14.10
2017,10,26,13,44,14.10
2017,10,26,13,45,14.10
2017,10,26,13,46,14.10
2017,10,26,13,47,14.20
2017,10,26,13,48,14.20
2017,10,26,13,49,14.10
2017,10,26,13,50,14.10
2017,10,26,13,51,14.10
2017,10,26,13,52,14.10
2017,10,26,13,53,14.20
2017,10,26,13,54,14.20
2017,10,26,13,55,14.20
2017,10,26,13,56,14.30
2017,10,26,13,57,14.30
2017,10,26,13,58,14.30
2017,10,26,13,59,14.30
2017,10,26,14,00,14.30
2017,10,26,14,01,14.30
2017,10,26,14,02,14.30
2017,10,26,14,03,14.30
2017,10,26,14,04,14.30
2017,10,26,14,05,14.30
2017,10,26,14,06,14.30
2017,10,26,14,07,14.30
2017,10,26,14,08,14.30
2017,10,26,14,09,14.30
2017,10,26,14,10,14.40
2017,10,26,14,11,14.40
2017,10,26,14,12,14.40
2017,10,26,14,13,14.40
2017,10,26,14,14,14.50
2017,10,26,14,15,14.50
2017,10,26,14,16,14.50
2017,10,26,14,17,14.50
2017,10,26,14,18,14.60
2017,10,26,14,19,14.60
2017,10,26,14,20,14.60
2017,10,26,14,21,14.60
2017,10,26,14,22,14.60
2017,10,26,14,23,14.60
2017,10,26,14,24,14.60
2017,10,26,14,25,14.60
2017,10,26,14,26,14.70
2017,10,26,14,27,14.70
2017,10,26,14,28,14.70
2017,10,26,14,29,14.70
2017,10,26,14,30,14.70
2017,10,26,14,31,14.70
2017,10,26,14,32,14.80
2017,10,26,14,33,14.80
2017,10,26,14,34,14.80
2017,10,26,14,35,14.80
2017,10,26,14,36,14.80
2017,10,26,14,37,14.80
2017,10,26,14,38,14.80
2017,10,26,14,39,14.80
2017,10,26,14,40,14.90
2017,10,26,14,41,14.90
2017,10,26,14,42,14.90
2017,10,26,14,43,14.90
2017,10,26,14,44,14.90
2017,10,26,14,45,14.90
2017,10,26,14,46,14.90
2017,10,26,14,47,14.90
2017,10,26,14,48,14.90
2017,10,26,14,49,15.00
2017,10,26,14,50,15.00
2017,10,26,14,51,15.10
2017,10,26,14,52,15.10
2017,10,26,14,53,15.10
2017,10,26,14,54,15.10
2017,10,26,14,55,15.10
2017,10,26,14,56,15.10
2017,10,26,14,57,15.10
2017,10,26,14,58,15.00
2017,10,26,14,59,15.00
2017,10,26,15,00,15.00
2017,10,26,15,01,15.00
2017,10,26,15,02,15.00
2017,10,26,15,03,15.10
2017,10,26,15,04,15.10
2017,10,26,15,05,15.20
2017,10,26,15,06,15.20
2017,10,26,15,07,15.20
2017,10,26,15,08,15.20
2017,10,26,15,09,15.20
2017,10,26,15,10,15.20
2017,10,26,15,11,15.20
2017,10,26,15,12,15.20
2017,10,26,15,13,15.20
2017,10,26,15,14,15.20
2017,10,26,15,15,15.30
2017,10,26,15,16,15.30
2017,10,26,15,17,15.30
2017,10,26,15,18,15.30
2017,10,26,15,19,15.30
2017,10,26,15,20,15.30
2017,10,26,15,21,15.30
2017,10,26,15,22,15.30
2017,10,26,15,23,15.30
2017,10,26,15,24,15.30
2017,10,26,15,25,15.30
2017,10,26,15,26,15.30
2017,10,26,15,27,15.30
2017,10,26,15,28,15.30
2017,10,26,15,29,15.40
2017,10,26,15,30,15.30
2017,10,26,15,31,15.30
2017,10,26,15,32,15.30
2017,10,26,15,33,15.30
2017,10,26,15,34,15.30
2017,10,26,15,35,15.30
2017,10,26,15,36,15.30
2017,10,26,15,37,15.30
2017,10,26,15,38,15.40
2017,10,26,15,39,15.40
2017,10,26,15,40,15.40
2017,10,26,15,41,15.40
2017,10,26,15,42,15.40
2017,10,26,15,43,15.40
2017,10,26,15,44,15.50
2017,10,26,15,45,15.50
2017,10,26,15,46,15.50
2017,10,26,15,47,15.40
2017,10,26,15,48,15.40
2017,10,26,15,49,15.40
2017,10,26,15,50,15.30
2017,10,26,15,51,15.30
2017,10,26,15,52,15.20
2017,10,26,15,53,15.10
2017,10,26,15,54,15.00
2017,10,26,15,55,14.90
2017,10,26,15,56,14.80
2017,10,26,15,57,14.80
2017,10,26,15,58,14.80
2017,10,26,15,59,14.70
2017,10,26,16,00,14.70
2017,10,26,16,01,14.70
2017,10,26,16,02,14.70
2017,10,26,16,03,14.70
2017,10,26,16,04,14.70
2017,10,26,16,05,14.60
2017,10,26,16,06,14.60
2017,10,26,16,07,14.50
2017,10,26,16,08,14.50
2017,10,26,16,09,14.40
2017,10,26,16,10,14.30
2017,10,26,16,11,14.30
2017,10,26,16,12,14.20
2017,10,26,16,13,14.20
2017,10,26,16,14,14.20
2017,10,26,16,15,14.10
2017,10,26,16,16,14.00
2017,10,26,16,17,14.00
2017,10,26,16,18,13.90
2017,10,26,16,19,13.90
2017,10,26,16,20,13.80
2017,10,26,16,21,13.80
2017,10,26,16,22,13.80
2017,10,26,16,23,13.80
2017,10,26,16,24,13.80
2017,10,26,16,25,13.80
2017,10,26,16,26,13.80
2017,10,26,16,27,13.80
2017,10,26,16,28,13.80
2017,10,26,16,29,13.80
2017,10,26,16,30,13.80
2017,10,26,16,31,13.80
2017,10,26,16,32,13.80
2017,10,26,16,33,13.80
2017,10,26,16,34,13.80
2017,10,26,16,35,13.80
2017,10,26,16,36,13.80
2017,10,26,16,37,13.80
2017,10,26,16,38,13.80
2017,10,26,16,39,13.90
2017,10,26,16,40,13.90
2017,10,26,16,41,13.90
2017,10,26,16,42,13.90
2017,10,26,16,43,13.90
2017,10,26,16,44,13.80
2017,10,26,16,45,13.80
2017,10,26,16,46,13.80
2017,10,26,16,47,13.80
2017,10,26,16,48,13.80
2017,10,26,16,49,13.80
2017,10,26,16,50,13.80
2017,10,26,16,51,13.80
2017,10,26,16,52,13.80
2017,10,26,16,53,13.80
2017,10,26,16,54,13.80
2017,10,26,16,55,13.80
2017,10,26,16,56,13.80
2017,10,26,16,57,13.80
2017,10,26,16,58,13.80
2017,10,26,16,59,13.70
2017,10,26,17,00,13.70
2017,10,26,17,01,13.70
2017,10,26,17,02,13.70
2017,10,26,17,03,13.70
2017,10,26,17,04,13.70
2017,10,26,17,05,13.70
2017,10,26,17,06,13.70
2017,10,26,17,07,13.70
2017,10,26,17,08,13.70
2017,10,26,17,09,13.70
2017,10,26,17,10,13.70
2017,10,26,17,11,13.60
2017,10,26,17,12,13.60
2017,10,26,17,13,13.60
2017,10,26,17,14,13.60
2017,10,26,17,15,13.60
2017,10,26,17,16,13.60
2017,10,26,17,17,13.60
2017,10,26,17,18,13.60
2017,10,26,17,19,13.60
2017,10,26,17,20,13.60
2017,10,26,17,21,13.60
2017,10,26,17,22,13.50
2017,10,26,17,23,13.50
2017,10,26,17,24,13.50
2017,10,26,17,25,13.50
2017,10,26,17,26,13.50
2017,10,26,17,27,13.50
2017,10,26,17,28,13.50
2017,10,26,17,29,13.50
2017,10,26,17,30,13.50
2017,10,26,17,31,13.50
2017,10,26,17,32,13.50
2017,10,26,17,33,13.50
2017,10,26,17,34,13.50
2017,10,26,17,35,13.40
2017,10,26,17,36,13.40
2017,10,26,17,37,13.40
2017,10,26,17,38,13.40
2017,10,26,17,39,13.40
2017,10,26,17,40,13.40
2017,10,26,17,41,13.40
2017,10,26,17,42,13.40
2017,10,26,17,43,13.40
2017,10,26,17,44,13.40